Temp
23 23 23 22 20 17 20 22 26 25 29 29 30 29 29 28 29 26 28 27 27 28 27 25 25 25 25 25 25 25 26 26 26 26 26 25 25 25 25 24 23 23 22 22 22 21 21 21 21
23 23 22 17 19 19 19 23 28 27 29 29 30 30 29 28 27 25 27 27 27 27 27 26 25 25 25 25 24 24 25 25 25 25 25 25 25 25 25 24 23 23 22 22 22 22 21 21 21
22 22 19 18 17 19 21 26 27 28 28 30 30 30 28 27 26 26 27 27 26 26 26 26 26 25 25 25 25 24 24 24 24 24 24 24 24 24 24 24 23 23 22 22 22 21 21 21 21
22 19 17 19 20 20 24 24 27 28 28 30 29 29 29 28 27 28 27 27 26 26 26 26 26 26 25 24 24 24 24 24 24 24 24 24 24 24 24 23 23 23 22 21 21 21 20 20 20
21 16 18 19 19 21 23 25 25 27 28 30 29 30 28 27 28 27 28 28 28 27 25 26 25 25 25 24 24 24 24 24 24 24 23 24 24 23 23 23 23 22 22 22 21 20 20 20 20
18 16 18 18 20 22 23 24 26 27 29 29 29 29 25 26 27 27 28 27 28 27 25 25 24 24 24 24 24 24 24 23 23 23 23 23 23 23 23 23 23 22 22 21 21 20 21 20 20
18 17 17 19 20 21 25 25 25 25 27 28 29 27 25 26 28 28 27 27 26 26 26 25 24 24 23 23 23 23 23 23 23 23 23 23 23 23 23 22 22 22 22 21 20 20 20 20 20
17 17 19 19 20 20 24 25 25 24 25 28 29 27 24 25 28 29 28 26 25 25 25 25 24 23 23 23 22 23 23 23 23 23 22 22 23 23 23 22 22 22 22 21 20 20 20 20 20
20 17 15 18 21 21 24 24 25 25 24 25 26 28 27 28 28 28 28 25 24 24 24 24 24 23 23 22 22 22 22 22 22 22 21 21 21 22 22 22 22 21 21 21 21 20 20 20 20
18 15 18 19 21 22 23 23 23 24 24 25 24 25 27 26 26 26 25 26 24 23 23 23 23 23 22 22 21 21 21 21 22 21 21 20 21 21 21 21 21 21 21 21 21 20 20 20 19
19 19 21 22 22 22 23 23 24 23 23 24 24 24 24 25 25 24 26 27 27 26 23 23 24 22 22 22 21 20 20 21 21 21 21 21 21 21 20 21 21 20 20 20 20 20 19 19 20
19 20 21 21 22 21 21 21 22 23 23 24 23 23 24 25 24 23 25 27 27 26 25 23 23 22 21 21 20 21 20 20 21 21 21 21 21 20 20 20 20 21 20 20 20 20 20 19 19
19 20 20 20 20 20 21 21 22 22 22 22 23 24 23 22 22 24 26 26 24 23 21 21 21 20 20 20 20 21 21 21 21 21 21 21 21 21 20 20 21 21 21 20 20 20 19 19 19
19 18 18 19 18 19 21 21 21 22 22 23 24 23 23 22 22 23 24 21 21 20 20 20 20 20 20 20 20 19 19 19 20 20 20 20 21 21 21 20 20 20 20 21 20 20 20 19 19
18 17 18 18 19 19 20 20 20 22 21 22 24 24 23 22 23 22 23 20 20 19 18 18 18 18 18 18 18 19 19 18 18 18 19 19 20 20 21 20 20 21 20 21 20 20 19 19 19
17 16 15 18 20 19 19 18 22 21 20 20 20 21 23 22 22 21 19 19 17 17 17 17 18 18 17 17 17 18 18 18 18 19 18 18 19 20 20 20 20 21 20 20 20 20 19 18 19
15 13 15 17 19 19 19 18 19 21 20 20 19 19 21 22 17 17 16 15 16 16 16 15 16 16 16 16 16 17 17 17 17 17 18 18 18 18 20 21 21 21 20 20 20 19 19 18 18
13 13 14 15 16 18 17 18 20 19 18 18 18 19 20 20 17 16 14 14 14 14 14 14 14 14 14 15 15 15 15 16 16 16 17 17 17 18 17 19 21 21 21 20 19 18 19 19 19
15 15 15 16 17 17 17 17 17 18 17 18 18 19 20 17 16 14 13 13 12 12 12 12 12 11 12 11 11 11 11 12 14 14 14 15 15 16 17 17 17 19 20 20 20 20 17 17 18
15 15 15 17 17 17 16 16 17 17 18 18 18 19 18 17 15 13 12 11 10 10 10 10 10 10 9 8 8 8 8 10 11 11 13 14 13 14 14 14 15 16 17 18 18 19 19 19 18
15 15 16 16 15 15 14 14 16 18 17 18 19 19 19 16 14 12 11 9 8 8 8 8 8 8 7 7 7 6 7 7 8 10 11 12 12 12 12 13 13 14 15 17 18 18 19 19 17
15 14 14 14 13 13 13 13 16 16 16 17 17 15 14 13 13 11 10 8 7 7 7 7 6 6 6 6 5 4 4 4 4 5 5 7 9 10 10 10 12 13 14 15 17 17 17 18 16
14 14 13 13 12 10 13 11 15 17 16 16 15 13 11 11 10 10 9 8 7 6 6 5 5 5 4 4 4 3 3 3 3 4 4 5 5 6 9 9 9 11 13 15 16 16 16 17 15
13 13 13 12 11 9 13 12 12 14 15 15 14 12 11 11 10 10 8 7 6 5 5 4 3 3 3 2 2 3 2 2 3 3 4 5 5 6 6 7 8 9 11 13 15 16 16 16 16
12 12 12 9 11 11 14 13 13 12 11 13 11 9 9 10 9 8 7 6 5 4 4 4 2 2 1 1 1 2 2 2 2 2 3 3 4 5 6 6 7 8 9 11 13 15 15 14 14
11 12 11 11 11 11 14 11 11 9 7 8 9 9 8 8 8 7 7 6 5 4 3 2 2 2 1 0 0 1 1 1 1 1 2 2 4 4 5 5 7 7 9 10 12 14 15 15 14
11 10 13 11 10 9 11 12 12 8 6 6 5 6 6 6 6 6 5 4 4 3 2 2 1 1 0 -0 -1 -0 0 0 0 1 1 2 2 3 3 4 5 7 9 10 11 14 15 15 15
13 12 11 10 10 11 13 11 10 9 7 6 5 4 3 4 5 5 4 4 3 2 2 1 1 0 -0 -1 -1 -1 -1 -0 -0 -0 0 0 1 2 3 3 4 6 9 11 11 12 14 14 15
12 13 12 11 10 11 11 11 9 8 8 7 5 5 6 6 5 4 3 3 2 2 2 1 -0 -1 -1 -1 -1 -1 -1 -1 -1 -1 -1 -1 -0 0 1 2 3 6 8 12 12 12 14 15 15
15 14 13 10 10 10 10 11 9 9 10 9 8 7 5 4 4 3 2 2 1 1 1 0 -1 -1 -1 -1 -1 -2 -1 -1 -1 -2 -2 -2 -2 -1 -0 1 2 3 6 11 13 13 14 15 14
Height
782 782 782 781 808 817 819 800 771 771 758 744 739 742 748 746 752 776 747 746 748 750 752 755 758 760 761 763 764 766 767 769 771 773 776 779 781 783 785 788 790 792 795 798 800 802 805 807 810
780 782 784 793 818 830 820 785 772 764 749 741 739 739 744 755 742 746 747 746 747 749 752 755 757 759 761 763 765 767 769 771 772 774 776 779 781 784 786 788 790 792 795 797 799 802 804 807 809
782 781 792 807 823 826 813 774 767 758 747 741 742 735 740 750 743 744 746 745 746 748 750 754 757 759 761 762 764 766 768 771 773 775 777 779 782 784 786 788 790 792 794 797 800 802 805 807 809
783 785 793 811 813 799 785 775 766 760 750 739 740 748 737 737 738 741 744 746 745 747 750 752 756 758 761 762 763 765 767 769 772 775 777 779 781 784 786 788 790 791 793 796 799 802 804 806 808
785 793 809 811 805 789 774 768 764 760 752 745 742 749 748 742 740 741 742 743 744 746 749 752 754 756 758 761 763 764 765 768 771 774 776 778 781 783 785 787 789 791 792 794 798 801 803 805 807
796 800 817 818 801 783 772 766 762 753 745 744 746 745 753 745 743 742 743 743 744 745 747 751 754 756 757 759 761 763 764 766 769 771 774 776 779 781 784 786 787 789 790 792 795 800 802 803 805
799 810 815 805 799 788 769 760 765 765 754 750 740 753 752 747 744 744 742 743 745 747 747 748 751 754 756 758 760 762 763 764 767 769 771 774 777 779 781 784 786 787 788 791 793 797 800 802 804
795 805 808 804 798 793 769 765 763 766 765 745 740 756 760 745 743 743 743 744 745 747 748 747 749 751 753 755 757 760 762 764 765 767 769 772 774 776 778 781 783 784 786 788 792 794 797 799 801
787 812 820 805 792 783 765 771 763 760 764 757 749 744 740 740 741 741 740 742 744 746 747 748 748 749 751 752 753 756 758 761 764 766 768 771 773 775 777 778 780 782 784 785 787 791 794 797 799
795 813 801 787 781 780 769 769 765 766 763 758 754 745 744 746 740 737 737 739 741 744 746 747 747 747 749 750 751 752 754 757 760 763 766 769 771 773 774 776 778 779 781 782 784 787 790 793 795
789 794 782 778 776 774 770 763 759 761 766 760 758 749 743 740 740 738 737 735 737 739 741 744 748 749 748 749 750 750 753 755 757 759 762 765 768 769 771 773 775 776 778 779 781 783 785 788 791
790 780 779 776 774 776 774 765 760 760 759 749 746 743 741 739 738 737 735 733 734 736 737 740 745 749 748 749 751 752 752 754 755 757 758 761 763 765 767 768 770 772 773 774 776 778 781 783 786
785 779 776 776 775 772 764 759 760 757 747 743 740 737 736 735 733 733 730 730 732 732 735 742 745 747 750 748 751 752 751 752 753 755 756 757 760 761 764 765 766 767 769 770 772 773 776 779 782
781 779 779 777 779 772 765 751 757 751 744 735 735 734 731 728 727 727 727 728 730 733 736 742 747 751 749 748 750 751 752 753 753 754 755 756 756 758 759 761 761 762 763 765 767 769 771 774 778
780 782 778 778 775 772 763 743 759 745 743 737 732 727 726 723 722 724 723 727 727 730 736 742 745 748 749 750 749 749 751 751 752 752 753 754 755 753 754 754 754 755 757 759 763 765 768 770 772
787 785 788 774 770 767 770 747 748 743 744 743 739 733 727 723 717 721 721 723 728 731 734 738 741 743 746 749 749 749 750 750 749 749 750 749 750 751 749 747 750 754 755 757 759 761 762 766 767
796 800 785 782 767 770 771 756 745 743 744 741 740 735 727 721 722 724 726 725 727 728 733 736 739 741 743 747 747 747 748 748 748 747 745 746 745 746 746 745 746 752 750 751 753 755 757 759 761
801 797 788 788 779 770 776 755 739 744 746 743 739 732 726 723 724 724 727 728 730 730 731 734 736 737 741 743 745 745 745 745 746 745 744 742 743 743 741 740 739 742 746 745 745 748 750 752 754
786 788 783 777 772 770 773 756 746 741 745 739 732 729 727 730 734 731 728 729 730 732 733 735 736 739 743 745 744 744 743 743 743 743 742 741 739 739 738 736 735 736 737 738 740 742 745 747 749
785 786 780 761 762 767 769 756 746 735 737 733 728 724 731 736 746 733 732 730 731 734 738 739 741 743 746 749 753 753 750 744 743 741 739 737 736 735 735 734 733 732 732 731 734 736 740 741 744
780 779 773 772 770 766 770 762 742 732 726 723 721 718 724 728 739 739 738 736 738 738 742 742 746 749 748 749 752 751 748 746 741 738 736 733 732 731 730 729 729 729 728 726 727 728 731 735 738
778 774 773 775 779 779 774 774 726 729 725 723 720 719 724 738 746 738 741 741 744 746 746 750 751 749 750 750 750 752 751 748 746 743 737 732 729 727 725 724 722 722 722 722 721 722 722 726 730
773 774 776 779 783 789 771 791 733 728 727 727 725 729 732 742 754 748 741 743 749 753 752 760 757 747 752 752 751 752 751 749 744 739 736 730 727 724 721 718 717 715 713 713 714 714 715 717 721
773 776 777 782 788 803 764 772 753 745 738 736 738 748 743 744 748 747 749 754 756 757 756 762 758 747 753 754 754 751 752 750 744 736 732 726 724 721 719 714 711 709 708 705 705 705 707 710 713
773 781 787 805 787 782 755 761 755 753 752 740 744 753 763 755 754 754 756 760 760 760 756 761 755 756 756 753 751 751 751 749 744 736 729 726 720 716 713 709 705 702 700 698 699 697 696 700 706
773 777 790 787 783 775 755 770 768 773 776 762 759 761 761 770 760 762 763 766 764 760 760 766 765 759 755 753 751 752 747 745 741 736 730 725 720 714 710 703 700 696 692 690 691 691 688 690 697
772 783 768 779 783 796 766 757 759 782 783 782 782 781 781 774 775 768 768 771 767 763 771 773 764 758 756 753 750 749 746 743 740 734 729 725 716 709 704 696 693 687 683 681 683 683 680 682 685
757 764 779 787 783 770 752 765 774 777 784 782 787 788 791 789 771 774 774 770 772 778 773 771 767 762 761 756 752 749 745 742 738 733 728 723 712 706 697 692 689 680 675 672 673 674 674 676 677
757 759 764 770 779 769 762 768 777 781 779 785 787 784 784 779 785 782 782 783 782 779 773 772 768 765 759 754 753 751 748 745 738 731 726 719 712 704 698 692 685 677 670 663 663 665 666 668 669
736 743 753 775 775 772 774 762 774 774 774 780 782 784 781 779 784 782 781 780 781 780 778 774 772 769 763 759 760 757 751 744 738 732 726 719 712 705 698 691 686 676 667 658 655 654 655 659 661
Wind_Speed
12 7 7 4 4 5 5 6 4 8 2 3 2 3 4 1 3 3 7 6 9 8 13 19 20 20 20 20 21 21 20 19 19 19 18 18 17 16 16 16 16 16 16 16 16 16 15 14 11
9 5 4 2 4 2 5 6 4 4 4 4 1 2 4 2 3 6 3 9 9 10 12 16 21 20 20 19 18 17 17 16 16 18 19 19 18 17 16 16 16 16 15 14 15 15 14 13 11
8 2 3 3 3 4 4 4 4 7 8 2 2 0 6 7 4 8 12 12 12 10 14 16 19 19 19 19 18 16 15 15 15 16 17 19 18 18 17 17 16 15 14 13 13 12 11 10 9
7 5 4 3 7 7 5 8 5 6 7 4 1 3 3 4 9 13 16 13 10 8 14 16 18 21 21 19 18 17 15 15 15 16 17 19 20 19 18 18 17 17 15 12 11 11 11 10 9
4 3 2 2 7 6 5 5 6 13 5 1 1 2 3 5 22 20 13 11 10 8 13 16 16 21 23 21 19 17 16 15 16 16 18 19 20 20 19 18 18 17 16 14 12 12 11 10 9
4 3 2 4 6 6 6 8 7 8 4 3 2 2 2 9 16 15 10 8 7 9 11 16 14 16 22 22 20 18 17 17 17 17 19 20 21 21 20 19 19 19 17 16 15 13 12 11 10
5 3 4 3 4 8 4 7 11 13 8 5 2 2 2 1 9 10 8 8 7 7 12 15 16 15 17 20 21 20 19 18 18 18 20 21 22 23 21 20 20 20 20 18 17 15 13 11 10
4 3 4 4 3 8 4 4 6 9 15 9 2 2 4 5 10 8 5 6 10 12 13 14 16 16 15 19 21 20 20 19 19 19 20 21 22 23 23 22 22 22 22 20 19 17 14 13 12
3 2 3 5 2 6 13 12 2 7 6 7 9 2 6 19 14 12 8 8 15 15 15 16 16 17 15 14 21 22 22 20 19 19 20 20 22 23 23 24 23 23 23 23 22 20 17 15 14
4 4 6 7 4 11 16 13 11 4 11 6 6 11 12 8 12 12 9 7 14 17 17 17 17 18 17 14 18 25 24 23 22 22 22 23 23 24 25 24 24 24 25 25 24 22 19 18 17
4 7 4 10 11 11 16 20 11 6 4 6 8 7 9 9 6 6 8 8 8 7 21 20 17 16 15 14 15 22 24 24 23 23 24 24 24 24 25 25 26 26 26 26 26 25 23 22 20
4 7 8 7 5 8 12 10 15 5 6 9 9 8 6 8 7 9 9 9 8 5 15 21 14 14 14 12 13 15 22 24 24 24 24 25 26 26 27 28 28 28 29 30 30 29 28 26 24
5 4 6 9 12 11 15 17 18 17 15 10 10 10 10 9 9 14 17 11 10 10 13 12 10 7 9 10 12 14 19 22 25 26 26 27 27 28 29 29 29 30 31 32 33 33 32 30 27
5 10 8 7 9 9 16 20 8 10 12 21 15 16 13 11 10 14 15 16 24 25 27 22 18 13 12 5 2 8 12 16 20 24 28 29 30 31 32 32 32 32 32 33 34 35 35 34 30
7 12 12 6 5 5 15 31 10 12 11 19 22 21 16 12 12 14 17 25 31 29 26 22 19 14 13 11 9 9 6 9 12 18 25 28 33 33 34 35 37 36 35 34 33 34 34 35 33
6 5 3 4 1 7 3 33 4 8 9 12 11 13 17 13 11 14 27 33 32 32 28 22 16 13 11 10 10 10 9 9 8 10 14 18 27 33 36 36 37 36 35 37 36 36 35 34 34
3 6 8 4 8 4 2 20 3 15 10 14 11 14 16 17 10 16 22 29 29 28 25 23 18 16 14 13 12 11 12 12 12 11 10 10 12 20 32 34 34 32 39 37 38 36 36 33 34
6 6 7 3 6 3 8 25 25 9 8 14 17 15 16 11 13 20 24 29 31 28 25 23 21 20 17 15 17 16 15 15 18 19 18 17 15 16 18 30 36 36 38 37 37 33 36 35 36
4 9 17 14 6 8 9 23 19 13 11 18 18 14 11 12 11 18 23 28 32 31 30 27 24 24 23 24 25 27 26 27 22 22 23 23 22 19 18 20 26 34 37 40 42 37 28 29 34
13 15 17 20 8 6 9 22 22 23 17 17 16 14 10 13 7 13 22 27 30 31 29 27 25 22 21 21 19 14 23 19 24 22 24 23 23 24 24 21 19 25 32 35 32 35 32 31 31
14 16 16 15 5 5 7 14 21 13 12 11 12 13 13 19 14 13 16 23 26 30 28 26 24 21 20 20 21 22 19 20 20 28 28 26 27 27 27 29 27 24 23 32 32 35 37 30 16
10 3 4 3 5 7 6 11 30 9 11 7 10 8 19 15 11 14 14 22 24 27 29 26 22 23 21 21 22 23 17 16 19 23 25 30 29 29 28 27 29 28 30 27 32 34 34 31 21
2 2 4 1 1 4 4 3 11 18 17 10 1 15 17 14 9 12 17 25 25 27 27 22 22 28 22 21 20 19 20 21 24 22 21 23 24 26 28 28 27 28 31 33 30 31 32 34 29
7 3 1 2 2 3 4 7 5 6 5 5 14 12 15 15 15 17 23 23 22 22 22 20 23 32 25 21 20 16 18 22 24 23 24 22 23 24 24 25 27 27 27 32 30 36 35 38 38
4 5 3 3 3 6 3 2 4 12 16 14 17 17 10 11 14 16 16 18 21 22 26 21 27 24 25 23 21 18 17 20 21 23 23 28 25 26 30 30 30 30 31 30 27 35 37 35 32
5 7 4 6 3 4 4 3 5 15 19 21 19 16 18 10 15 15 16 18 19 23 26 23 20 20 25 24 22 19 20 21 22 23 24 26 25 27 31 31 30 35 36 34 32 32 35 33 36
5 4 2 2 3 1 3 3 11 11 12 14 14 15 13 14 11 15 17 20 23 23 19 20 21 22 24 26 24 23 22 23 24 26 25 25 26 28 31 35 35 36 33 32 32 30 35 36 39
6 7 3 2 4 4 3 4 2 1 2 9 8 9 8 7 14 13 14 21 21 17 18 21 20 19 18 21 23 24 24 25 25 25 25 27 30 31 34 35 34 34 32 34 33 31 31 32 37
4 4 2 3 2 2 2 2 2 4 6 7 8 10 8 12 11 11 13 15 16 17 19 21 24 23 25 25 25 25 25 24 25 25 27 28 29 31 30 33 33 30 31 29 32 32 29 31 32
10 11 10 3 4 2 2 2 5 7 5 11 10 9 11 14 13 13 18 19 19 19 19 21 23 22 23 22 21 22 23 25 26 26 27 30 30 29 29 30 31 27 29 23 27 33 29 28 29
Wind_Direction
336 341 337 44 53 60 289 275 262 304 99 278 254 106 137 33 129 195 146 91 131 140 178 180 181 178 173 169 165 163 164 162 163 165 164 161 156 153 153 154 158 161 165 168 171 173 176 181 188
352 4 36 57 92 70 277 260 297 277 231 203 271 72 61 79 75 128 104 112 136 149 174 187 186 185 181 176 174 171 168 168 168 169 168 169 166 163 161 162 165 167 170 172 173 177 180 186 193
349 46 86 93 132 188 210 232 37 285 292 205 149 194 129 137 120 136 134 128 133 160 178 186 194 195 189 184 181 180 178 176 175 175 174 173 172 170 169 170 172 176 176 177 178 179 180 187 190
357 15 30 102 242 252 221 291 309 293 288 307 147 60 44 255 139 149 140 135 124 147 183 190 197 203 200 193 188 187 188 187 185 183 181 183 179 178 178 178 181 183 181 181 182 181 182 185 186
21 57 53 217 252 261 281 258 266 285 243 199 42 228 68 16 131 137 139 133 162 154 173 194 204 210 204 200 197 194 195 196 194 191 189 189 189 186 186 186 188 191 188 186 189 191 196 200 195
12 82 64 239 261 292 288 302 295 280 194 194 124 231 27 147 130 134 128 129 135 169 167 187 197 214 211 205 204 203 202 200 200 197 195 194 194 193 193 194 196 198 197 195 194 205 205 201 201
120 89 235 243 270 301 299 345 8 350 343 337 330 71 163 131 116 117 126 145 159 175 176 184 194 201 212 214 211 209 207 204 203 202 199 198 197 198 198 201 203 205 205 205 202 207 209 209 210
110 95 301 270 257 277 310 19 348 15 318 330 3 161 208 222 144 137 116 148 181 187 192 190 192 198 205 212 214 214 209 208 206 206 205 200 199 201 204 206 209 210 210 210 211 212 215 215 211
96 48 232 249 270 264 311 324 83 314 347 322 329 278 176 172 169 158 160 123 179 193 200 195 195 201 206 215 216 211 210 208 208 207 206 205 205 206 208 211 214 215 215 216 217 216 218 222 219
127 178 231 212 251 286 297 296 303 329 315 301 329 323 332 220 198 166 167 168 181 193 206 208 208 205 204 214 220 211 207 204 205 206 207 210 212 213 214 215 219 220 220 220 221 220 220 223 223
215 230 247 275 283 283 290 297 300 268 267 248 270 274 302 318 198 196 187 196 220 208 210 210 222 212 207 221 220 211 209 208 207 209 210 213 216 216 218 220 221 222 222 224 222 222 222 222 224
290 262 277 288 317 327 306 305 301 266 268 263 240 233 240 251 234 205 208 216 240 237 202 204 208 220 207 211 221 216 217 217 217 215 213 215 218 219 221 222 223 223 223 224 224 225 224 224 226
270 268 293 305 303 298 295 286 282 290 287 262 285 275 256 239 238 248 200 198 125 136 184 170 173 197 222 223 235 248 228 224 227 225 223 221 223 223 224 226 225 226 226 227 227 228 229 229 228
298 301 306 341 328 301 291 287 302 291 290 292 284 274 262 251 228 223 199 142 120 106 102 100 89 80 83 111 267 250 252 243 238 237 235 231 230 229 229 229 229 228 227 228 230 231 232 234 233
298 308 311 289 241 270 293 283 261 290 274 276 285 287 271 250 238 209 174 129 123 112 108 97 89 80 65 55 38 20 342 294 261 256 250 244 238 238 236 233 231 232 231 231 232 234 236 238 236
325 287 303 218 157 258 229 277 204 296 317 300 295 314 303 271 228 159 134 126 118 111 102 97 88 69 50 24 11 1 355 339 324 301 283 262 256 248 244 239 237 240 235 234 235 234 232 235 235
270 265 253 325 215 279 237 289 72 326 325 311 310 302 307 303 114 119 114 113 110 105 100 86 72 53 28 0 349 335 327 323 323 323 314 313 300 277 258 257 251 240 250 236 235 230 228 224 228
222 262 277 252 299 296 308 287 299 306 308 307 302 305 305 282 132 124 113 103 96 90 81 69 57 42 27 8 348 337 331 321 319 317 317 313 309 306 302 272 259 252 248 244 232 225 224 224 225
251 265 272 273 250 302 292 280 290 286 292 295 295 302 333 89 107 111 101 93 86 77 69 60 52 37 25 16 4 347 340 332 322 318 315 310 308 307 306 299 286 269 256 248 244 242 222 216 220
247 259 267 282 280 315 302 283 288 284 283 273 286 283 125 116 118 101 89 83 79 74 65 55 48 40 29 19 7 353 331 325 324 323 315 313 310 303 296 296 297 285 268 257 242 238 234 233 227
245 251 270 267 339 197 296 288 285 285 263 277 282 286 168 143 129 82 70 72 70 67 62 58 50 43 33 20 2 352 350 334 337 331 326 320 316 309 303 294 287 284 285 261 252 244 240 236 214
267 339 42 12 16 298 88 297 294 282 291 285 298 88 106 94 97 98 84 71 65 61 54 48 50 45 27 14 6 356 348 331 319 318 319 321 318 313 310 302 292 285 276 284 255 249 238 227 203
226 123 109 119 37 354 175 245 270 333 310 316 119 115 107 112 109 84 90 78 67 60 56 42 45 43 28 16 10 357 338 328 325 322 316 321 318 317 313 308 300 290 281 273 262 237 231 229 197
139 96 119 79 125 260 188 197 316 3 353 32 81 81 109 113 100 85 74 74 67 60 54 34 35 36 25 15 9 360 341 328 326 330 324 323 319 312 304 304 303 301 283 269 274 242 231 227 215
104 81 307 321 230 239 339 224 300 351 9 311 122 99 36 83 88 80 73 63 56 49 43 26 27 25 17 16 10 359 345 333 326 327 327 321 317 314 310 309 302 295 287 279 271 244 231 221 220
159 160 182 230 234 282 304 248 20 47 27 30 77 88 98 55 76 72 70 61 55 52 40 25 18 18 13 9 5 357 353 342 335 328 325 315 311 311 308 308 302 294 286 277 263 251 231 225 220
155 185 178 293 239 344 227 106 55 24 46 41 43 42 54 76 64 72 66 54 45 46 36 20 17 15 9 6 1 356 351 348 339 335 330 321 319 320 315 318 307 301 287 271 259 251 233 221 221
152 153 109 123 228 239 257 89 145 125 79 104 72 66 52 63 64 57 54 48 41 35 31 18 16 14 4 4 4 356 352 350 344 341 335 330 331 331 331 325 314 314 304 267 258 249 242 227 224
151 187 150 161 207 245 295 171 219 242 147 121 124 120 95 63 67 67 62 54 40 29 29 19 12 8 11 8 2 357 355 352 352 350 345 341 339 340 335 329 323 319 310 271 251 244 233 230 235
192 199 181 156 224 225 104 214 191 211 169 150 134 107 78 63 47 39 33 30 27 23 22 20 9 6 11 10 4 360 359 1 360 357 353 354 348 347 344 341 335 335 331 315 253 240 227 238 222